TimeCDT,TemperatureF,Dew PointF,Humidity,Sea Level PressureIn,VisibilityMPH,Wind Direction,Wind SpeedMPH,Gust SpeedMPH,PrecipitationIn,Events,Conditions,WindDirDegrees,DateUTC
12:00 AM,14.0,-9999,N/A,30.75,9.0,North,10.4,-,N/A,,Unknown,10,2012-10-24 05:00:00
12:29 AM,14.0,-9999,N/A,30.73,9.0,North,10.4,-,N/A,,Unknown,10,2012-10-24 05:29:00
12:39 AM,14.0,-9999,N/A,30.73,9.0,North,8.1,-,N/A,,Unknown,10,2012-10-24 05:39:00
1:00 AM,14,,,30.75,9,North,9.2,,,,,10,2012-10-24 06:00:00
1:00 AM,14.0,-9999,N/A,30.75,9.0,NNE,6.9,-,N/A,,Unknown,20,2012-10-24 06:00:00
1:03 AM,14.0,-9999,N/A,30.73,9.0,North,10.4,-,N/A,,Unknown,360,2012-10-24 06:03:00
2:00 AM,14.0,-9999,N/A,30.76,9.0,NNE,10.4,-,N/A,,Unknown,20,2012-10-24 07:00:00
2:34 AM,14.0,-9999,N/A,30.74,9.0,North,8.1,-,N/A,,Unknown,10,2012-10-24 07:34:00
2:56 AM,12.2,-9999,N/A,30.74,9.0,North,9.2,-,N/A,,Unknown,10,2012-10-24 07:56:00
2:59 AM,12.2,-9999,N/A,30.74,9.0,North,9.2,-,N/A,,Unknown,360,2012-10-24 07:59:00
3:00 AM,12.2,-9999,N/A,30.76,9.0,North,9.2,-,N/A,,Unknown,360,2012-10-24 08:00:00
3:18 AM,12.2,-9999,N/A,30.74,9.0,North,8.1,-,N/A,,Unknown,10,2012-10-24 08:18:00
3:29 AM,12.2,-9999,N/A,30.74,9.0,NNE,5.8,-,N/A,,Unknown,30,2012-10-24 08:29:00
3:39 AM,12.2,-9999,N/A,30.74,7.0,North,4.6,-,N/A,,Unknown,350,2012-10-24 08:39:00
3:49 AM,12.2,-9999,N/A,30.74,7.0,NNW,5.8,-,N/A,,Unknown,330,2012-10-24 08:49:00
3:59 AM,12.2,-9999,N/A,30.74,6.0,North,5.8,-,N/A,,Unknown,360,2012-10-24 08:59:00
4:00 AM,13,,,30.76,6,North,5.8,,,,,350,2012-10-24 09:00:00
4:23 AM,12.2,-9999,N/A,30.74,5.0,North,4.6,-,N/A,Snow,Light Snow,350,2012-10-24 09:23:00
4:29 AM,12.2,-9999,N/A,30.74,3.5,North,5.8,-,N/A,Snow,Light Snow,360,2012-10-24 09:29:00
4:37 AM,12.2,-9999,N/A,30.74,3.0,NNE,5.8,-,N/A,Snow,Light Snow,20,2012-10-24 09:37:00
4:43 AM,12.2,-9999,N/A,30.73,3.5,North,5.8,-,N/A,Snow,Light Snow,10,2012-10-24 09:43:00
4:44 AM,12.2,-9999,N/A,30.73,4.0,NNE,5.8,-,N/A,Snow,Light Snow,20,2012-10-24 09:44:00
4:45 AM,12.2,-9999,N/A,30.73,4.0,NNE,5.8,-,N/A,Snow,Light Snow,20,2012-10-24 09:45:00
4:48 AM,12.2,-9999,N/A,30.73,4.0,North,5.8,-,N/A,Snow,Light Snow,350,2012-10-24 09:48:00
4:51 AM,12.2,-9999,N/A,30.73,3.5,NNW,4.6,-,N/A,,Unknown,340,2012-10-24 09:51:00
4:54 AM,12.2,-9999,N/A,30.73,3.0,NNW,4.6,-,N/A,,Unknown,340,2012-10-24 09:54:00
4:56 AM,12.2,-9999,N/A,30.73,2.8,North,4.6,-,N/A,Snow,Light Snow,360,2012-10-24 09:56:00
5:00 AM,12.2,-9999,N/A,30.75,2.8,NNE,8.1,-,N/A,Snow,Light Snow,20,2012-10-24 10:00:00
5:12 AM,12.2,-9999,N/A,30.73,5.0,North,5.8,-,N/A,Snow,Light Snow,360,2012-10-24 10:12:00
5:15 AM,12.2,-9999,N/A,30.73,5.0,North,5.8,-,N/A,,Unknown,360,2012-10-24 10:15:00
5:25 AM,10.4,-9999,N/A,30.73,6.0,North,8.1,-,N/A,Snow,Light Snow,10,2012-10-24 10:25:00
5:41 AM,10.4,-9999,N/A,30.73,7.0,North,8.1,-,N/A,,Unknown,360,2012-10-24 10:41:00
6:00 AM,10.4,-9999,N/A,30.75,7.0,NNE,6.9,-,N/A,,Unknown,30,2012-10-24 11:00:00
6:08 AM,10.4,-9999,N/A,30.73,9.0,NNE,5.8,-,N/A,,Unknown,20,2012-10-24 11:08:00
6:24 AM,10.4,-9999,N/A,30.73,9.0,ENE,4.6,-,N/A,,Unknown,60,2012-10-24 11:24:00
6:39 AM,10.4,-9999,N/A,30.72,9.0,NE,3.5,-,N/A,,Unknown,40,2012-10-24 11:39:00
6:40 AM,10.4,-9999,N/A,30.72,9.0,NE,3.5,-,N/A,,Unknown,40,2012-10-24 11:40:00
6:55 AM,10.4,-9999,N/A,30.72,9.0,North,6.9,-,N/A,,Unknown,10,2012-10-24 11:55:00
7:00 AM,10,,,30.74,9,North,5.8,,,,,10,2012-10-24 12:00:00
7:00 AM,10.4,-9999,N/A,30.74,9.0,North,3.5,-,N/A,,Unknown,10,2012-10-24 12:00:00
7:10 AM,10.4,-9999,N/A,30.71,9.0,NNW,4.6,-,N/A,,Unknown,340,2012-10-24 12:10:00
7:11 AM,10.4,-9999,N/A,30.71,9.0,NNW,4.6,-,N/A,,Unknown,340,2012-10-24 12:11:00
7:24 AM,8.6,-9999,N/A,30.71,2.8,North,5.8,-,N/A,,Unknown,350,2012-10-24 12:24:00
7:29 AM,8.6,-9999,N/A,30.71,1.2,North,5.8,-,N/A,,Unknown,360,2012-10-24 12:29:00
7:31 AM,8.6,-9999,N/A,30.71,1.0,North,6.9,-,N/A,,Unknown,10,2012-10-24 12:31:00
7:33 AM,8.6,-9999,N/A,30.71,1.0,North,5.8,-,N/A,,Unknown,360,2012-10-24 12:33:00
7:36 AM,8.6,-9999,N/A,30.71,0.6,North,6.9,-,N/A,,Unknown,360,2012-10-24 12:36:00
7:41 AM,8.6,-9999,N/A,30.71,0.4,North,6.9,-,N/A,,Unknown,360,2012-10-24 12:41:00
7:51 AM,8.6,-9999,N/A,30.71,0.1,North,5.8,-,N/A,,Unknown,350,2012-10-24 12:51:00
8:00 AM,6.8,-9999,N/A,30.73,0.1,North,4.6,-,N/A,,Unknown,360,2012-10-24 13:00:00
8:08 AM,6.8,-9999,N/A,30.71,0.1,North,4.6,-,N/A,,Unknown,360,2012-10-24 13:08:00
8:43 AM,3.2,-9999,N/A,30.71,0.2,North,3.5,-,N/A,,Unknown,10,2012-10-24 13:43:00
8:59 AM,3.2,-9999,N/A,30.71,0.5,NNE,2.3,-,N/A,,Unknown,20,2012-10-24 13:59:00
9:00 AM,3.2,-9999,N/A,30.73,0.5,NNE,2.3,-,N/A,,Unknown,20,2012-10-24 14:00:00
9:07 AM,3.2,-9999,N/A,30.71,0.6,Calm,Calm,-,N/A,,Unknown,0,2012-10-24 14:07:00
9:12 AM,3.2,-9999,N/A,30.70,0.4,Calm,Calm,-,N/A,,Unknown,0,2012-10-24 14:12:00
9:30 AM,3.2,-9999,N/A,30.70,0.2,Calm,Calm,-,N/A,,Unknown,0,2012-10-24 14:30:00
9:35 AM,3.2,-9999,N/A,30.70,0.4,Calm,Calm,-,N/A,,Unknown,0,2012-10-24 14:35:00
9:39 AM,3.2,-9999,N/A,30.70,0.4,Calm,Calm,-,N/A,,Unknown,0,2012-10-24 14:39:00
9:40 AM,3.2,-9999,N/A,30.70,0.8,Calm,Calm,-,N/A,,Unknown,0,2012-10-24 14:40:00
9:43 AM,3.2,-9999,N/A,30.70,1.0,Calm,Calm,-,N/A,,Unknown,0,2012-10-24 14:43:00
9:47 AM,3.2,-9999,N/A,30.70,1.0,Calm,Calm,-,N/A,,Unknown,0,2012-10-24 14:47:00
9:53 AM,3.2,-9999,N/A,30.70,1.2,Calm,Calm,-,N/A,,Unknown,0,2012-10-24 14:53:00
9:57 AM,3.2,-9999,N/A,30.70,1.0,North,2.3,-,N/A,,Unknown,360,2012-10-24 14:57:00
9:59 AM,3.2,-9999,N/A,30.70,0.6,North,2.3,-,N/A,,Unknown,360,2012-10-24 14:59:00
10:00 AM,3,,,30.72,1,Calm,Calm,,,,,,2012-10-24 15:00:00
10:00 AM,3.2,-9999,N/A,30.72,0.6,North,2.3,-,N/A,,Unknown,10,2012-10-24 15:00:00
10:08 AM,3.2,-9999,N/A,30.69,0.1,Calm,Calm,-,N/A,,Unknown,0,2012-10-24 15:08:00
11:00 AM,6.8,-9999,N/A,30.71,0.1,Calm,Calm,-,N/A,,Unknown,0,2012-10-24 16:00:00
11:45 AM,6.8,-9999,N/A,30.68,0.5,ENE,3.5,-,N/A,,Unknown,70,2012-10-24 16:45:00
11:53 AM,6.8,-9999,N/A,30.67,1.0,NE,3.5,-,N/A,,Unknown,40,2012-10-24 16:53:00
12:00 PM,6.8,-9999,N/A,30.69,1.1,NE,3.5,-,N/A,,Unknown,50,2012-10-24 17:00:00
12:04 PM,6.8,-9999,N/A,30.67,1.0,NE,3.5,-,N/A,,Unknown,50,2012-10-24 17:04:00
12:15 PM,6.8,-9999,N/A,30.67,1.5,North,4.6,-,N/A,,Unknown,360,2012-10-24 17:15:00
12:20 PM,6.8,-9999,N/A,30.67,1.2,North,3.5,-,N/A,,Unknown,10,2012-10-24 17:20:00
12:25 PM,6.8,-9999,N/A,30.67,1.0,North,5.8,-,N/A,,Unknown,10,2012-10-24 17:25:00
12:26 PM,6.8,-9999,N/A,30.67,0.6,North,5.8,-,N/A,,Unknown,360,2012-10-24 17:26:00
12:36 PM,5.0,-9999,N/A,30.66,0.4,North,4.6,-,N/A,,Unknown,360,2012-10-24 17:36:00
12:53 PM,5.0,-9999,N/A,30.67,0.1,NNE,6.9,-,N/A,,Unknown,20,2012-10-24 17:53:00
1:00 PM,4,,,30.69,0,NNE,5.8,,,,,20,2012-10-24 18:00:00
1:00 PM,3.2,-9999,N/A,30.69,0.1,NNE,4.6,-,N/A,,Unknown,30,2012-10-24 18:00:00
1:16 PM,5.0,-9999,N/A,30.67,0.1,NE,3.5,-,N/A,,Unknown,40,2012-10-24 18:16:00
1:21 PM,3.2,-9999,N/A,30.66,0.5,NE,4.6,-,N/A,,Unknown,40,2012-10-24 18:21:00
1:28 PM,3.2,-9999,N/A,30.66,0.4,NNE,4.6,-,N/A,,Unknown,20,2012-10-24 18:28:00
1:43 PM,1.4,-9999,N/A,30.66,0.4,NNE,6.9,-,N/A,,Unknown,20,2012-10-24 18:43:00
1:47 PM,1.4,-9999,N/A,30.66,0.4,NNE,6.9,-,N/A,,Unknown,20,2012-10-24 18:47:00
1:48 PM,1.4,-9999,N/A,30.66,0.6,North,6.9,-,N/A,,Unknown,10,2012-10-24 18:48:00
2:00 PM,1.4,-9999,N/A,30.68,0.6,NNE,5.8,-,N/A,,Unknown,20,2012-10-24 19:00:00
2:15 PM,1.4,-9999,N/A,30.65,0.8,North,4.6,-,N/A,,Unknown,360,2012-10-24 19:15:00
2:24 PM,1.4,-9999,N/A,30.65,1.6,NNE,3.5,-,N/A,,Unknown,20,2012-10-24 19:24:00
2:37 PM,1.4,-9999,N/A,30.65,7.0,NNE,4.6,-,N/A,,Unknown,20,2012-10-24 19:37:00
2:43 PM,1.4,-9999,N/A,30.65,7.0,North,4.6,-,N/A,,Unknown,10,2012-10-24 19:43:00
2:53 PM,1.4,-9999,N/A,30.65,9.0,North,3.5,-,N/A,,Unknown,10,2012-10-24 19:53:00
2:59 PM,1.4,-9999,N/A,30.65,3.0,North,4.6,-,N/A,,Unknown,360,2012-10-24 19:59:00
3:00 PM,1.4,-9999,N/A,30.67,2.8,North,4.6,-,N/A,,Unknown,360,2012-10-24 20:00:00
3:06 PM,1.4,-9999,N/A,30.65,3.0,North,5.8,-,N/A,,Unknown,350,2012-10-24 20:06:00
3:14 PM,1.4,-9999,N/A,30.65,3.5,North,5.8,-,N/A,,Unknown,360,2012-10-24 20:14:00
3:41 PM,-0.4,-9999,N/A,30.64,2.1,North,8.1,-,N/A,,Unknown,350,2012-10-24 20:41:00
3:43 PM,-0.4,-9999,N/A,30.64,1.1,North,8.1,-,N/A,,Unknown,350,2012-10-24 20:43:00
3:45 PM,-0.4,-9999,N/A,30.64,0.8,North,8.1,-,N/A,,Unknown,360,2012-10-24 20:45:00
3:47 PM,-0.4,-9999,N/A,30.64,0.6,North,8.1,-,N/A,,Unknown,350,2012-10-24 20:47:00
3:55 PM,-0.4,-9999,N/A,30.63,0.6,NNW,8.1,-,N/A,,Unknown,340,2012-10-24 20:55:00
3:56 PM,-0.4,-9999,N/A,30.63,1.0,NNW,8.1,-,N/A,,Unknown,340,2012-10-24 20:56:00
3:57 PM,-0.4,-9999,N/A,30.63,1.1,NNW,6.9,-,N/A,,Unknown,340,2012-10-24 20:57:00
4:00 PM,-0,,,30.65,1,NNW,8.1,,,,,340,2012-10-24 21:00:00
4:03 PM,-0.4,-9999,N/A,30.63,1.4,NNW,6.9,-,N/A,,Unknown,340,2012-10-24 21:03:00
4:11 PM,-0.4,-9999,N/A,30.63,3.0,NNW,6.9,-,N/A,,Unknown,340,2012-10-24 21:11:00
4:23 PM,-0.4,-9999,N/A,30.63,3.5,North,6.9,-,N/A,,Unknown,350,2012-10-24 21:23:00
4:24 PM,-0.4,-9999,N/A,30.62,3.5,North,6.9,-,N/A,,Unknown,350,2012-10-24 21:24:00
4:29 PM,-0.4,-9999,N/A,30.62,3.5,North,5.8,-,N/A,,Unknown,350,2012-10-24 21:29:00
4:36 PM,-0.4,-9999,N/A,30.62,4.0,NNW,6.9,-,N/A,,Unknown,340,2012-10-24 21:36:00
4:39 PM,-0.4,-9999,N/A,30.62,2.6,NNW,6.9,-,N/A,,Unknown,340,2012-10-24 21:39:00
4:44 PM,-0.4,-9999,N/A,30.62,1.2,NNW,6.9,-,N/A,,Unknown,340,2012-10-24 21:44:00
4:48 PM,-0.4,-9999,N/A,30.62,1.0,NNW,6.9,-,N/A,,Unknown,340,2012-10-24 21:48:00
5:00 PM,-0.4,-9999,N/A,30.63,1.0,NNW,6.9,-,N/A,,Unknown,330,2012-10-24 22:00:00
5:03 PM,-0.4,-9999,N/A,30.61,1.0,NNW,6.9,-,N/A,,Unknown,330,2012-10-24 22:03:00
5:13 PM,-0.4,-9999,N/A,30.61,1.1,NNW,6.9,-,N/A,,Unknown,340,2012-10-24 22:13:00
5:18 PM,-0.4,-9999,N/A,30.61,1.0,NNW,8.1,-,N/A,,Unknown,340,2012-10-24 22:18:00
5:20 PM,-0.4,-9999,N/A,30.61,1.0,North,8.1,-,N/A,,Unknown,350,2012-10-24 22:20:00
5:22 PM,-0.4,-9999,N/A,30.61,1.0,North,9.2,-,N/A,,Unknown,350,2012-10-24 22:22:00
5:37 PM,1.4,-9999,N/A,30.60,1.2,North,9.2,-,N/A,,Unknown,360,2012-10-24 22:37:00
5:42 PM,1.4,-9999,N/A,30.60,1.1,North,8.1,-,N/A,,Unknown,360,2012-10-24 22:42:00
5:49 PM,1.4,-9999,N/A,30.60,1.4,North,10.4,-,N/A,,Unknown,360,2012-10-24 22:49:00
5:50 PM,1.4,-9999,N/A,30.60,1.4,North,10.4,-,N/A,,Unknown,360,2012-10-24 22:50:00
5:51 PM,1.4,-9999,N/A,30.60,1.4,North,10.4,-,N/A,,Unknown,360,2012-10-24 22:51:00
5:58 PM,1.4,-9999,N/A,30.60,1.8,North,8.1,-,N/A,,Unknown,350,2012-10-24 22:58:00
6:00 PM,1.4,-9999,N/A,30.62,1.5,North,8.1,-,N/A,,Unknown,360,2012-10-24 23:00:00
6:01 PM,1.4,-9999,N/A,30.60,1.4,North,8.1,-,N/A,,Unknown,360,2012-10-24 23:01:00
6:09 PM,1.4,-9999,N/A,30.59,1.0,North,9.2,-,N/A,,Unknown,360,2012-10-24 23:09:00
6:11 PM,1.4,-9999,N/A,30.59,0.6,North,9.2,-,N/A,,Unknown,360,2012-10-24 23:11:00
6:15 PM,1.4,-9999,N/A,30.59,0.4,North,9.2,-,N/A,,Unknown,360,2012-10-24 23:15:00
6:32 PM,3.2,-9999,N/A,30.59,0.1,NNE,6.9,-,N/A,,Unknown,20,2012-10-24 23:32:00
6:45 PM,3.2,-9999,N/A,30.59,0.1,NNE,8.1,-,N/A,,Unknown,20,2012-10-24 23:45:00
7:00 PM,4,,,30.60,0,NNE,6.9,,,,,20,2012-10-25 00:00:00
7:00 PM,3.2,-9999,N/A,30.60,0.1,NNE,6.9,-,N/A,,Unknown,20,2012-10-25 00:00:00
7:33 PM,3.2,-9999,N/A,30.57,0.1,NNE,6.9,-,N/A,,Unknown,20,2012-10-25 00:33:00
8:00 PM,3.2,-9999,N/A,30.59,0.1,NE,3.5,-,N/A,,Unknown,50,2012-10-25 01:00:00
8:44 PM,1.4,-9999,N/A,30.56,0.1,ESE,2.3,-,N/A,,Unknown,120,2012-10-25 01:44:00
9:17 PM,3.2,-9999,N/A,30.55,0.1,SSE,2.3,-,N/A,,Unknown,150,2012-10-25 02:17:00
10:00 PM,4,,,30.57,0,SE,2.3,,,,,140,2012-10-25 03:00:00
11:00 PM,5.0,-9999,N/A,30.54,0.1,Calm,Calm,-,N/A,,Unknown,0,2012-10-25 04:00:00
11:56 PM,6.8,-9999,N/A,30.51,0.4,South,5.8,-,N/A,,Unknown,170,2012-10-25 04:56:00